Weather in Maykop

Russia / Republic of Adygea     44°36′31″N   40°05′54″E
temp.,
°C
wind,
m/s
gust,
m/s
humid.,
%
clouds,
%
prec.,
mm/h
press.,
hPa
HPBL,
m
1 august, sun
sun100:00+20ssw23640 0.0 101141
03:00+19ssw22760 0.0 101134
06:00+19ssw22800 0.0 101239
09:00+27wnw11530 0.0 1012540
12:00+33nnw12330 0.0 10102021
15:00+34wnw12260 0.0 10092856
18:00+29sse234391 0.0 100994
21:00+24s22570 0.0 101033
2 august, mon
mon200:00+20ssw22700 0.0 101131
03:00+19s22710 0.0 101134
06:00+19s22730 0.0 101232
09:00+28w11470 0.0 1012494
12:00+34n13320 0.0 10112187
15:00+36ene132586 0.0 10083512
18:00+28ssw1244100 0.0 100927
21:00+24s11541 0.0 101017
3 august, tue
tue300:00+22ssw23660 0.0 101154
03:00+21ssw22680 0.0 101234
06:00+20s22680 0.0 101336
09:00+29w11400 0.0 1012535
12:00+34nw22270 0.0 10111803
15:00+36wnw33222 0.0 10103503
18:00+33wnw243260 0.0 1009428
21:00+25wsw11520 0.0 101214
4 august, wed
wed400:00+22ssw22620 0.0 101427
03:00+21s22610 0.0 101417
06:00+20s11670 0.0 101513
09:00+29sw11412 0.0 1014509
12:00+33nw22290 0.0 10141711
15:00+35w33262 0.0 10122648
18:00+32nw463735 0.0 1013671
21:00+24ssw22660 0.1 101555
5 august, thu
thu500:00+21sw11770 0.0 101516
03:00+19sse01800 0.0 101511
06:00+20se12810 0.0 101536
09:00+28ene23505 0.0 1015803
12:00+32ene34350 0.0 10132188
15:00+34ene43295 0.0 10113034
18:00+30ese47445 0.0 1011982
21:00+26ese412570 0.0 1011482